COSMOS 2251 DEB

Satellite information

Favourite Embed

Satellite Type and Status

DEBRISIN ORBIT

Key statistics

Satellite COSMOS 2251 DEB at a glance.

Uptime

11868

Days in orbit

Revolutions

≈ 14.6

Per day

Orbit

LEO

Low Earth Orbit

Inclination

74.0

Latest

Satellite identification and parameters

Extended collection of information and parameters for COSMOS 2251 DEB.

Object identification

Identified? True

Debris? True

Object name: COSMOS 2251 DEB

International designator: 1993-036AUB

Object number (NORAD): 35888

Object ID (CCSDS): 35888

Country: COMMONWEALTH OF INDEPENDENT STATES (CIS)

Current information (Y/N): Y

RCS size: SMALL

Orbital parameters

Period: 98.744 minutes

Inclination: 74.0337 deg

SMA: 7076.753 km

Apoapsis: 732.747 km

Periapsis: 664.488 km

RAAN: 357.5138 deg

Eccentricy: 0.00482275

Argument of periapsis: 129.7983 deg

Mean anomaly: 230.7443 deg

Mean motion: 14.58316356 rev/day

Mean motion (dot): 0.00002795 rev/day2

B* drag term: 0.00060064021 1/REarth

Two-line elements (TLE)

Creation date: Dec. 12, 2025, 10:14 a.m.

Reference frame: TEME

Reference center: EARTH

Epoch: Dec. 12, 2025, 7:04 a.m. UTC

TLE line 0: 0 COSMOS 2251 DEB

TLE line 1: 1 35888U 93036AUB 25346.29500034 .00002795 00000-0 60064-3 0 9998

TLE line 2: 2 35888 74.0337 357.5138 0048228 129.7983 230.7443 14.58316356862677

Live tracking on map

Real-time ground track for satellite COSMOS 2251 DEB.

In-orbit conjunctions

A list of the most updated potential collisions computed for object COSMOS 2251 DEB.

Target Orbit TCA Probability of collision Miss distance Type
GAOFEN 3 DEB SSO 2025-05-08 13:17:44 0.0001436382 43.0 (m) DEBRIS

Associated space launch

Military communications satellite. Destroyed in a collision with Iridium 33.

COSMOS 2251 DEB was lifted into orbit during the mission ‘Kosmos-3M | Strela-2M 51’, on board a Kosmos-3M space rocket.

The launch took place on June 16, 1993, 4:17 a.m. from 132/1 (132L).

For more information about the launch, click the button.

Launch to space Kosmos-3M | Strela-2M 51
Kosmos-3M | Strela-2M 51

Agency: N/A

Status: Launch Successful

Launch date: June 16, 1993, 4:17 a.m. UTC

Rocket: Kosmos-3M

Launch pad: 132/1 (132L)

Location: Plesetsk Cosmodrome, Russian Federation

...

Latest news about this satellite

There are no fresh news available about this satellite. Check back as we update our databases every day.


Newsletter sign-up

Weekly statistics, charts and insights to help you stay on top of the space industry.